sat.trackr.live / text

‹ back to catalog

STARLINK-11239 [DTC]

NORAD 60924 · 2024-155A

PAYLOAD ACTIVE UNKNOWN

§ Identity

Operator
Country
US
Launch date
2024-08-31
Launch site
AFWTR
Launch vehicle
Mass (kg)
RCS (m²)

Purposes: comms

External: N2YO · Heavens-Above · Gunter

§ Orbital elements

Epoch: 2026-05-25T04:41:52.591776Z

Period
91.74 min
Inclination
53.1580°
Eccentricity
0.0001147
Mean motion
15.69681089 rev/d
Perigee alt
359.0 km
Apogee alt
360.6 km
Semi-major
6,737.9 km
B*
1.2581e-4
RAAN
324.4629°
Arg perigee
101.4982°
Mean anomaly
258.6165°
Rev number
10,041

§ Raw data

STARLINK-11239 [DTC]1 60924U 24155A   26145.19574759  .00014662  00000+0  12581-3 0  99912 60924  53.1580 324.4629 0001147 101.4982 258.6165 15.69681089100415

JSON: /api/v1/satellites/60924 · /tle

For live sub-satellite position, see the globe view (requires WebGL).

§ Visibility from observer

Set your observer location to see the next 7 days of passes ≥ 10°. The values pass through the URL so the page stays shareable.

No JS? Fill the form by hand. The geolocation button needs JavaScript.